Location: Eaton
(41.3139°N, 82.0207°W)
Time: 17:01:51
(UTC+00:00)

Lacrosse 4 Rocket - Pass Details

Date: 17 June 2021
Orbit: 543 x 614 km, 68.0° (Epoch: 02 August)

Event Time Altitude Azimuth Distance (km) Brightness Sun altitude
Rises 07:22:55 0° 343° (NNW) 2,746 5.6 -20.1°
Reaches altitude 10° 07:25:29 10° 357° (N) 1,836 4.8 -19.9°
Maximum altitude 07:28:49 23° 52° (NE) 1,178 3.7 -19.6°
Drops below altitude 10° 07:32:06 10° 107° (ESE) 1,809 4.1 -19.3°
Sets 07:34:37 0° 121° (ESE) 2,694 4.8 -19.1°
